Change the Weather History Date:

Saturday, December 22, 2012

  Actual Average Record
Temperature  
Mean Temperature 70 °F -  
Max Temperature 81 °F 80 °F 87 °F (2000)
Min Temperature 58 °F 54 °F 49 °F (2014)
Cooling Degree Days 5    
Growing Degree Days 20 (Base 50)    
Moisture  
Dew Point 60 °F    
Average Humidity 72    
Maximum Humidity 99    
Minimum Humidity 51    
Precipitation  
Precipitation 0.00 in - - ()
Sea Level Pressure  
Sea Level Pressure 30.00 in    
Wind  
Wind Speed 2 mph ()    
Max Wind Speed 12 mph    
Max Gust Speed -    
Visibility 9.3 miles    
Events      
Averages and records for this station are not official NWS values.
T = Trace of Precipitation, MM = Missing Value Source: Averaged Metar Reports

Daily Weather History Graph

Daily Weather History Graph

Search for Another Location

Airport or City:

Trip Planner

Search our weather history database for the weather conditions in past years. The results will help you decide how hot, cold, wet, or windy it might be!

Date:

Astronomy

Dec. 22, 2012 Rise Set
Actual Time 6:50 AM MST 5:26 PM MST
Civil Twilight 6:25 AM MST 5:51 PM MST
Nautical Twilight 5:57 AM MST 6:20 PM MST
Astronomical Twilight 5:29 AM MST 6:48 PM MST
Moon 1:29 PM MST (12/22) 1:57 AM MST (12/22)
Length of Visible Light 11h 26m
Length of Day
10h 36m
Waxing Gibbous, 74% of the Moon is Illuminated
Dec 22
Waxing Gibbous
Dec 28
Full
Jan 4
Last Quarter
Jan 11
New
Jan 18
First Quarter

Hourly Weather History & Observations

Time (MST) Temp. Heat Index Dew Point Humidity Pressure Visibility Wind Dir Wind Speed Gust Speed Precip Events Conditions
1:40 AM 59 °F - 59 °F 99% 30.06 in 6 mi SW 2.2 mph - -  
4:40 AM 59 °F - 58 °F 97% 30.05 in 6 mi SW 2.2 mph - -  
5:56 AM 60.8 °F - 59.0 °F 94% 30.01 in 10.0 mi Calm Calm - N/A   Clear
6:40 AM 60.8 °F - 59.0 °F 94% 30.02 in 10.0 mi Calm Calm - N/A   Scattered Clouds
7:40 AM 58 °F - 57 °F 94% 30.06 in 10 mi SW 2.2 mph - -   Haze
7:45 AM 62.6 °F - 57.2 °F 82% 30.00 in 10.0 mi Calm Calm - N/A   Overcast
8:42 AM 66.2 °F - 57.2 °F 73% 30.03 in 10.0 mi Calm Calm - N/A   Overcast
9:45 AM 69.8 °F - 59.0 °F 68% 30.08 in 10.0 mi Calm Calm - N/A   Overcast
10:40 AM 71.6 °F - 57.2 °F 60% 30.06 in 10.0 mi NNW 8.1 mph - N/A   Overcast
11:42 AM 75.2 °F - 62.6 °F 65% 30.03 in 10.0 mi Calm Calm - N/A   Overcast
12:41 PM 78.8 °F - 64.4 °F 61% 29.97 in 10.0 mi Calm Calm - N/A   Overcast
1:44 PM 80.6 °F 82.3 °F 64.4 °F 58% 29.94 in 10.0 mi Calm Calm - N/A   Mostly Cloudy
1:50 PM 77 °F - 62 °F 51% 30.01 in 10 mi SW 2.2 mph - -   Haze
2:41 PM 80.6 °F 82.3 °F 64.4 °F 58% 29.94 in 10.0 mi WNW 8.1 mph - N/A   Mostly Cloudy
3:40 PM 82.4 °F 83.9 °F 64.4 °F 54% 29.94 in 10.0 mi WNW 4.6 mph - N/A   Mostly Cloudy
4:35 PM 78 °F - 64 °F 53% 29.97 in 10 mi WSW 4.5 mph - -   Haze
4:40 PM 78.8 °F - 59.0 °F 51% 29.94 in 10.0 mi WNW 11.5 mph - N/A   Mostly Cloudy
5:41 PM 73.4 °F - 62.6 °F 69% 29.95 in 10.0 mi WNW 5.8 mph - N/A   Mostly Cloudy
6:40 PM 69.8 °F - 59.0 °F 68% 29.96 in 10.0 mi WNW 8.1 mph - N/A   Mostly Cloudy
7:41 PM 68.0 °F - 57.2 °F 68% 29.98 in 10.0 mi Calm Calm - N/A   Mostly Cloudy
7:45 PM 67 °F - 61 °F 75% 30.06 in 6 mi Calm Calm - -  
8:40 PM 66.2 °F - 57.2 °F 73% 29.98 in 10.0 mi Calm Calm - N/A   Mostly Cloudy
9:40 PM 66.2 °F - 57.2 °F 73% 29.99 in 10.0 mi Calm Calm - N/A   Mostly Cloudy
10:45 PM 61 °F - 61 °F 98% 30.08 in 6 mi Calm Calm - -